Regional Weather Roundup
Issued by NWS State College, PA

Home | Current Version | Previous Version | Text Only | Print | Product List | Glossary On
Versions: 1 2 3 4 5 6 7 8 9 10 11 12 13 14 15 16 17 18 19 20 21 22 23 24 25 26 27 28 29 30 31 32 33 34 35 36 37 38 39 40 41 42 43 44 45 46 47 48 49 50
957
ASUS41 KCTP 031410
RWRCTP

REGIONAL WEATHER ROUNDUP
NATIONAL WEATHER SERVICE STATE COLLEGE PA
900 AM EST SAT DEC 03 2016

Note: "fair" indicates few or no clouds below 12,000 feet with no
significant weather and/or obstructions to visibility.

* = STATION THAT DOES NOT REPORT PRECIPITATION /E.G. RAIN...SNOW...ETC/
    THUNDER OR FOG.

PAZ002>004-007>009-013>016-020>023-029>032-031500-
WESTERN PENNSYLVANIA

CITY           SKY/WX    TMP DP  RH WIND       PRES   REMARKS
ERIE           CLOUDY    41  33  73 NW9       30.23R
MEADVILLE      CLOUDY    36  32  85 W9        30.21S
FRANKLIN*        N/A     32  28  86 W9        30.22S
NEW CASTLE     CLOUDY    36  30  79 W8        30.28R
BEAVER COUNTY  CLOUDY    34  30  86 W8        30.27
BUTLER*        CLOUDY    36  27  69 W8        30.28S
PITTSBURGH INT LGT SNOW  36  29  75 W12       30.27S
PITTSBURGH     CLOUDY    34  27  75 W8        30.26S
INDIANA*       CLOUDY    36  30  80 W14       30.25R
LATROBE        CLOUDY    36  30  80 W16       30.28R
WASHINGTON CO* CLOUDY    34  27  75 W3        30.29S
$$

PAZ004>006-010>012-017>019-024>028-033>037-041-042-045-046-049>053-031500-
CENTRAL PENNSYLVANIA

CITY           SKY/WX    TMP DP  RH WIND       PRES   REMARKS
BRADFORD       LGT SNOW  34  33  96 W9        30.12R FOG
DUBOIS         CLOUDY    34  31  88 W14       30.16R FOG
CLEARFIELD     MIX PCPN  36  33  89 W9        30.16R
JOHNSTOWN      CLOUDY    32  28  85 W18       30.16R
ALTOONA        CLOUDY    38  29  70 W17       30.19R
STATE COLLEGE  CLOUDY    37  32  81 W14       30.15R
WILLIAMSPORT   CLOUDY    43  31  62 W12       30.11R
SELINSGROVE    CLOUDY    43  33  68 NW9       30.14R
FT INDIANTOWN  CLOUDY    43  30  59 W13G21    30.11R
CAPITAL CITY   MOSUNNY   44  29  55 W10       30.14R
HARRISBURG     PTSUNNY   45  32  60 W10G18    30.13R
YORK           PTSUNNY   42  31  64 W9        30.15R
$$

PAZ038>040-043-044-047-048-054-055-060>062-067>071-031500-
EASTERN PENNSYLVANIA

CITY           SKY/WX    TMP DP  RH WIND       PRES   REMARKS
SCRANTON       CLOUDY    38  29  70 NW8       30.07R
MOUNT POCONO   CLOUDY    33  26  75 NW20G32   29.98R
ALLENTOWN      CLOUDY    43  28  55 W12       30.08R
QUAKERTOWN*    CLOUDY    41  28  60 NW10G17   30.08R
READING        PTSUNNY   44  32  62 NW14      30.11R
LANCASTER      CLOUDY    44  34  67 W10       30.12R
COATESVILLE    SUNNY     43  32  65 NW15G22   30.11R
POTTSTOWN      MOSUNNY   43  33  68 W10G17    30.11R
BLUE BELL      CLOUDY    41  32  70 W7        30.09R
DOYLESTOWN     CLOUDY    44  30  57 NW13G23   30.07R
WILLOW GROVE   NOT AVBL
NORTH PHILA    CLOUDY    46  31  55 W9        30.11R
PHILADELPHIA   PTSUNNY   45  32  60 W15       30.12R
$$




USA.gov is the U.S. government's official web portal to all federal, state and local government web resources and services.